Temp
13 12 12 12 12 11 11 11 10 10 10 10 10 10 10 9 9 9 9 9 9 9 9 9 10 10 10 11 12 12 12 12 11 11 11 11 11 11 11 10 10 10 9 9 10 10 9 9 9 8 8 8 8 7 7 7 7 7 7 7 7 7 7 6 6 6 6 6 6
12 12 12 12 11 11 11 10 10 10 10 10 10 10 9 9 9 9 9 9 9 9 9 9 10 10 10 11 11 12 12 11 11 11 11 11 11 11 11 10 10 9 9 9 9 9 9 9 8 8 8 8 7 7 7 7 7 7 7 7 7 6 6 6 6 6 6 6 6
12 12 12 11 11 11 11 10 10 10 10 10 10 9 9 9 9 9 9 9 9 9 9 9 9 10 10 11 11 11 11 11 11 11 11 11 11 10 10 9 9 9 9 9 9 9 9 8 8 8 8 8 8 7 7 7 7 7 7 6 6 6 6 6 6 6 6 6 6
12 12 11 11 11 11 11 10 10 10 10 9 9 9 9 9 9 9 9 9 9 9 9 9 9 10 10 11 11 11 11 11 11 11 11 11 10 9 9 9 9 9 9 9 9 9 9 8 8 8 8 8 7 7 7 7 7 7 6 6 6 6 6 6 6 6 6 6 5
12 12 11 11 11 11 11 10 10 10 9 9 9 9 9 9 9 9 8 8 9 9 9 9 9 9 10 10 11 11 11 11 11 11 10 10 9 8 8 9 9 9 9 9 9 9 8 8 8 8 8 7 7 7 7 7 7 6 6 6 6 6 6 6 6 6 5 5 5
11 11 11 11 11 11 10 10 10 10 9 9 9 9 9 9 8 8 8 8 9 9 9 9 9 9 9 10 10 10 10 10 10 10 9 8 8 8 8 9 9 9 9 9 8 8 8 8 8 7 7 7 7 7 7 7 7 6 6 6 6 6 6 6 5 5 5 5 5
11 11 11 11 10 10 10 10 9 9 9 9 9 9 9 9 8 8 8 9 9 9 9 9 9 9 9 10 10 10 10 10 9 9 8 7 7 8 9 9 9 8 8 8 8 8 8 8 7 7 7 7 6 6 6 6 6 6 6 6 6 6 5 5 5 5 5 5 5
11 11 10 10 10 10 10 9 9 9 9 9 9 9 9 8 8 8 8 9 9 9 9 9 9 9 9 10 10 10 10 9 8 8 7 7 8 8 9 8 8 8 8 8 8 8 8 7 7 7 7 7 7 7 6 6 6 6 6 6 5 5 5 5 5 5 5 4 4
10 10 10 10 10 10 9 9 9 9 9 9 9 9 8 8 8 8 9 9 9 9 9 9 9 9 9 10 10 9 9 8 7 7 7 8 9 9 8 8 8 8 8 8 8 8 8 7 7 7 7 7 7 7 6 6 6 6 6 6 5 5 5 5 5 5 4 4 4
10 10 10 9 9 9 9 9 9 9 9 9 8 8 8 8 8 8 9 9 9 9 9 9 9 9 9 9 9 8 8 7 7 7 8 9 9 8 8 8 8 8 8 8 8 8 7 7 7 7 7 7 7 6 6 6 6 6 6 5 5 5 5 5 5 4 4 4 4
10 9 9 9 9 9 9 8 9 9 9 8 8 8 8 8 8 8 8 9 9 9 9 9 9 9 9 8 8 7 7 7 7 8 8 8 8 7 7 8 8 8 8 8 7 7 7 7 7 7 6 6 6 6 6 6 6 5 5 5 5 5 5 5 4 4 4 4 4
9 9 9 9 9 9 8 8 8 8 8 8 8 8 8 8 8 8 8 8 8 8 8 8 8 8 8 7 7 7 7 7 7 8 8 7 7 7 8 8 8 8 8 7 7 7 7 7 7 6 6 6 6 6 6 6 5 5 5 5 5 5 4 4 4 4 4 4 4
9 9 9 9 9 9 8 8 8 8 8 8 8 7 8 8 8 8 8 8 8 8 8 8 8 7 7 7 7 7 7 7 7 7 7 6 7 8 8 8 8 8 7 7 7 7 7 6 6 6 6 6 6 6 5 5 5 5 5 5 5 4 4 4 4 4 4 4 4
9 9 9 9 9 9 9 9 8 8 8 7 7 7 7 7 7 7 7 7 7 7 7 7 7 7 7 6 6 6 7 7 7 6 6 7 8 8 8 8 7 7 7 7 7 6 6 6 6 6 6 6 5 5 5 5 5 5 5 5 4 4 4 4 4 4 4 4 4
9 9 9 9 9 9 9 9 8 8 7 7 7 7 7 6 6 6 6 6 7 7 7 7 7 6 6 6 6 6 6 6 6 6 7 7 8 8 7 7 7 7 7 7 6 6 6 6 6 6 6 5 5 5 5 5 5 5 5 4 4 4 4 4 4 4 4 4 4
9 9 9 9 9 9 9 9 8 8 7 7 7 7 6 6 6 6 6 6 6 6 6 6 6 6 6 6 6 6 6 6 6 7 7 8 7 7 7 7 7 7 7 7 6 6 6 6 6 6 5 5 5 5 5 5 5 5 4 4 4 4 4 4 4 4 4 4 3
9 9 9 9 9 9 9 9 8 8 7 7 7 6 6 6 6 5 5 6 6 6 6 6 6 6 6 6 6 6 6 6 7 7 8 7 7 7 7 7 7 7 7 6 6 6 6 6 6 6 5 5 5 5 5 5 5 4 4 4 4 4 4 4 4 4 4 3 3
9 9 9 9 9 9 9 8 8 8 7 7 6 6 6 6 5 5 5 6 6 6 6 5 5 5 5 6 6 6 7 7 7 7 7 7 7 7 7 7 7 6 6 6 6 6 6 6 5 5 5 5 5 5 5 4 4 4 4 4 4 4 4 4 4 4 3 3 3
9 9 9 9 9 9 9 8 8 7 7 7 6 6 5 5 5 5 6 6 6 6 5 5 5 6 6 6 6 7 7 7 7 7 7 7 7 7 7 7 6 6 6 6 6 6 5 5 5 5 5 4 4 4 4 4 4 4 4 4 4 4 4 4 4 3 3 3 3
9 9 9 9 9 9 8 8 8 7 7 6 6 6 5 5 5 6 6 6 6 6 6 6 6 6 6 7 7 7 7 7 7 7 7 7 7 7 6 6 6 6 6 5 5 5 5 5 5 4 4 4 4 4 4 4 4 4 4 4 4 4 3 3 3 3 3 3 3
8 9 8 8 8 8 8 8 7 7 7 6 6 5 5 5 6 6 6 6 6 6 6 6 7 7 7 7 7 7 7 7 7 7 7 7 6 6 6 6 6 5 5 5 5 5 5 5 4 4 4 4 4 4 4 4 4 4 4 3 3 3 3 3 3 3 3 3 3
8 8 8 8 8 8 8 7 7 7 6 6 5 5 5 5 6 6 6 6 6 7 7 7 7 7 7 7 7 7 7 7 7 7 7 6 6 6 6 6 6 5 5 5 5 5 5 4 4 4 4 4 4 4 4 4 3 3 3 3 3 3 3 3 3 3 3 2 2
8 8 8 8 8 8 7 7 6 6 6 5 5 5 5 5 6 6 6 6 7 7 7 7 7 7 7 7 7 7 6 6 6 6 6 6 6 6 6 6 5 5 5 5 5 5 5 4 4 4 4 4 4 4 4 3 3 3 3 3 3 3 3 3 3 2 2 2 2
7 7 8 8 7 7 7 6 6 6 5 5 5 5 5 5 6 6 7 7 7 7 7 7 7 6 6 6 6 6 7 6 6 6 6 6 6 6 5 5 5 5 5 5 5 5 4 4 4 4 4 4 4 4 4 3 3 3 3 3 3 3 3 3 2 2 2 2 2
7 7 7 7 7 6 6 6 5 5 5 5 5 5 5 6 6 6 7 7 6 6 6 6 6 5 5 6 6 7 7 6 6 6 6 6 6 5 5 5 5 5 5 4 4 4 4 4 4 4 4 4 4 4 3 3 3 3 3 3 3 3 3 2 2 2 2 2 2
7 7 7 7 6 6 5 5 5 5 5 5 5 5 6 6 6 6 6 6 6 6 5 5 5 5 5 6 6 6 6 6 6 6 6 6 5 5 5 5 5 4 4 4 4 4 4 4 4 4 4 4 3 3 3 3 3 3 3 2 2 2 2 2 2 2 1 1 1
7 7 6 6 5 5 5 4 4 4 4 5 5 5 6 6 6 6 6 5 5 4 4 4 4 5 6 6 6 6 6 6 6 6 6 6 5 5 5 4 4 4 4 4 4 4 3 3 3 3 3 3 3 3 3 3 3 2 2 2 2 1 1 1 1 1 1 1 1
6 6 5 5 5 4 4 4 4 4 4 5 5 5 5 5 5 5 5 4 4 4 4 4 5 5 6 6 6 6 6 6 6 6 5 5 5 5 4 4 4 4 4 4 3 3 3 3 3 3 2 2 2 2 2 2 2 2 2 1 1 1 1 1 1 1 1 1 1
6 5 5 4 4 3 3 3 4 4 4 5 5 5 5 5 5 4 4 4 4 4 4 5 5 5 5 6 6 6 6 5 5 5 5 5 5 4 4 4 4 4 3 3 3 3 3 3 3 2 2 1 2 2 2 1 1 1 1 1 1 0 0 0 0 0 1 1 1
5 4 4 3 3 3 3 3 4 4 4 4 4 4 4 4 4 3 3 3 4 4 5 5 5 5 5 5 5 5 5 5 5 5 5 5 5 4 4 4 3 3 3 3 3 3 3 2 2 2 1 1 1 1 1 1 1 1 0 0 0 0 0 0 0 0 0 1 1
4 4 4 3 3 3 4 4 4 4 4 4 4 4 4 3 3 3 3 4 4 4 5 5 5 5 5 5 5 5 5 5 5 5 4 4 4 4 4 3 3 3 3 3 3 2 2 2 2 1 1 0 1 1 1 0 0 0 -0 -0 -0 -0 -0 -0 0 0 0 1 1
4 4 4 4 4 4 4 4 4 4 4 4 3 3 3 3 3 3 3 4 4 4 5 5 5 5 5 5 5 5 4 4 4 4 4 3 3 3 3 3 3 3 2 2 2 2 2 1 1 1 1 0 0 0 0 0 -0 -0 -0 -1 -1 -0 -0 -0 -0 0 0 0 0
4 4 4 4 4 4 4 4 4 4 3 3 3 3 2 2 3 3 4 4 4 5 5 5 5 5 5 4 4 4 4 3 3 3 3 3 3 3 3 3 3 2 2 2 2 1 1 1 1 1 0 -0 -0 -0 -0 -0 -0 -1 -1 -1 -1 -1 -1 -0 -0 -0 0 0 0
3 3 4 4 4 4 4 3 3 3 3 3 2 2 2 2 3 3 4 4 4 5 5 5 5 5 4 4 4 3 3 3 2 2 2 2 3 3 3 2 2 2 2 1 1 1 1 1 0 0 -0 -0 -0 -0 -1 -1 -1 -1 -1 -1 -1 -1 -1 -1 -0 -0 -0 -0 -1
3 3 3 3 3 3 3 3 3 3 2 2 2 2 2 3 3 3 4 4 4 5 5 5 4 4 4 4 3 3 3 2 2 2 2 2 2 2 2 2 2 1 1 1 1 1 1 0 0 -0 -1 -1 -1 -1 -1 -1 -1 -1 -1 -1 -1 -1 -1 -1 -1 -1 -1 -1 -1
3 3 3 3 3 3 2 2 2 2 2 2 2 2 3 3 3 4 4 4 4 4 4 4 3 3 3 3 3 2 2 2 2 2 2 2 2 2 2 2 1 1 1 1 1 1 0 0 -0 -1 -1 -1 -1 -1 -2 -2 -2 -2 -2 -1 -1 -1 -1 -1 -1 -1 -1 -1 -2
3 3 3 3 2 2 2 2 2 2 2 2 2 2 3 3 3 3 4 4 4 3 3 3 3 2 2 2 2 2 2 3 3 3 2 2 2 2 2 1 1 1 1 0 0 0 0 -0 -1 -1 -1 -1 -2 -2 -2 -2 -2 -2 -2 -2 -2 -2 -2 -2 -2 -2 -2 -2 -2
3 3 2 2 2 2 2 2 2 2 2 2 2 2 3 3 3 3 3 3 3 2 2 2 2 2 2 2 2 2 3 3 3 3 2 2 2 2 2 1 1 1 0 0 0 -0 -0 -1 -1 -1 -1 -2 -2 -2 -2 -2 -2 -2 -2 -2 -2 -2 -2 -2 -2 -2 -2 -2 -2
3 2 2 2 2 2 2 2 2 2 2 2 2 2 2 2 2 2 2 2 2 2 2 2 2 2 2 3 3 2 2 2 2 2 2 2 2 2 1 1 1 1 0 -0 -0 -1 -1 -1 -1 -1 -2 -2 -2 -2 -2 -2 -2 -2 -2 -2 -2 -2 -2 -2 -2 -2 -2 -2 -3
2 1 1 1 1 1 1 1 1 1 1 1 1 1 2 2 2 2 2 2 2 2 2 2 2 2 2 2 2 2 2 2 2 2 2 2 1 1 1 1 1 1 0 -0 -1 -1 -1 -1 -1 -1 -2 -2 -2 -2 -3 -3 -3 -3 -3 -3 -3 -3 -3 -3 -3 -3 -3 -3 -3
1 1 1 1 1 1 1 1 1 1 1 1 1 1 1 1 1 1 1 2 2 2 2 2 2 2 2 2 2 2 2 2 2 2 1 1 1 1 1 1 1 0 -0 -0 -1 -1 -1 -1 -1 -2 -2 -2 -2 -3 -3 -3 -3 -3 -3 -3 -3 -3 -3 -3 -3 -3 -3 -3 -3
Height
735 737 739 741 743 745 746 748 750 752 754 755 757 759 760 762 765 766 768 770 771 773 775 776 778 779 780 781 783 784 786 787 789 791 792 794 796 798 800 802 804 804 804 803 801 802 803 805 806 808 809 811 811 812 812 812 812 811 811 811 812 812 812 812 812 812 813 813 813
735 737 739 740 742 744 746 748 750 752 753 755 756 758 759 761 763 766 767 769 771 772 774 776 778 779 780 781 782 784 785 786 788 790 791 793 795 797 799 801 803 804 803 802 802 802 803 804 806 807 809 810 811 811 811 811 811 811 811 811 811 811 812 812 812 812 812 813 813
735 736 738 740 741 743 745 747 749 751 753 755 756 757 759 761 763 765 767 769 770 772 774 776 778 779 779 780 782 783 785 786 787 789 791 792 795 796 798 800 802 802 802 802 802 803 803 805 806 807 808 809 810 811 811 811 811 811 811 811 811 811 811 811 812 812 812 812 813
734 736 737 739 740 741 743 745 747 749 751 753 755 757 759 761 763 765 767 769 771 772 774 775 777 778 779 780 781 783 785 786 787 789 790 792 794 796 797 799 800 801 801 802 803 803 804 805 806 807 808 809 809 810 810 810 810 810 810 810 810 811 811 811 811 811 812 812 812
733 735 736 737 739 740 741 743 745 748 750 752 754 757 759 761 763 764 766 769 771 772 774 775 776 778 779 780 781 783 784 786 787 789 791 793 794 796 797 798 799 800 801 802 802 803 804 805 806 807 808 808 809 809 809 809 810 810 810 810 810 810 810 811 811 811 811 812 812
732 734 736 737 738 740 741 743 745 746 749 751 753 755 758 760 761 763 766 768 770 772 774 775 776 777 778 780 781 782 784 786 787 789 791 793 795 796 797 798 799 800 801 802 802 802 803 805 806 807 808 808 808 808 809 809 809 809 809 809 809 810 810 810 811 811 811 811 812
731 733 735 737 738 740 741 743 745 746 748 750 752 754 756 758 760 762 764 766 769 772 774 775 776 777 778 779 780 781 783 785 787 789 791 794 796 797 797 798 800 801 801 801 801 802 803 805 806 806 807 807 808 808 808 808 809 809 809 809 809 809 809 810 810 811 811 811 811
730 732 734 736 737 739 740 742 744 746 748 750 752 753 755 756 759 761 764 766 769 771 773 775 775 776 777 778 779 781 782 784 786 788 791 793 795 796 797 799 800 801 801 801 801 802 803 804 805 806 806 807 807 807 808 808 808 808 808 808 808 809 809 809 810 810 811 811 811
731 733 734 736 737 739 740 741 743 745 747 750 751 753 755 756 759 761 763 766 768 771 772 774 775 776 776 777 778 780 781 784 786 788 791 792 794 795 797 799 800 800 800 801 801 802 803 804 805 806 806 806 806 807 807 807 808 808 808 808 808 808 809 809 809 810 810 810 810
730 732 734 736 738 739 740 742 743 745 747 750 751 753 755 757 759 761 763 765 768 770 772 773 774 775 776 778 779 781 782 784 786 788 790 791 793 795 797 799 799 799 800 800 801 802 803 804 805 805 806 806 806 806 807 807 807 807 807 807 808 808 808 809 809 809 809 809 809
729 731 733 735 737 739 740 742 745 746 748 750 752 754 756 758 760 762 764 766 768 770 771 773 774 776 777 779 781 782 784 786 787 788 790 791 793 795 797 798 798 798 799 800 801 802 803 803 804 805 805 805 806 806 806 806 806 807 807 807 807 808 808 808 809 809 809 809 809
728 730 732 734 736 738 740 742 745 747 749 750 752 754 756 759 761 762 765 766 768 770 772 773 775 776 778 780 782 784 786 786 787 788 790 791 794 796 797 797 798 798 799 800 801 801 802 803 804 804 804 805 805 805 806 806 806 806 806 806 807 807 807 808 808 808 808 808 808
728 730 732 734 736 738 740 742 745 747 749 750 752 755 757 759 761 763 765 766 769 771 773 775 776 777 779 781 782 784 786 787 787 788 790 792 794 796 796 797 797 798 799 800 801 801 802 803 803 804 804 804 805 805 805 805 806 806 806 806 806 807 807 807 807 807 807 807 807
728 730 732 734 736 738 740 742 745 747 749 751 753 755 758 760 761 763 765 766 768 771 773 775 776 778 779 781 782 784 785 786 787 789 791 793 794 795 796 796 797 798 799 800 801 801 802 802 803 803 804 804 804 805 805 805 805 806 806 806 806 806 806 806 807 807 806 806 806
728 730 731 733 735 737 740 742 744 746 749 751 753 755 758 760 761 763 764 766 768 770 772 774 776 778 779 781 782 783 785 786 788 790 792 793 794 794 795 796 797 798 799 800 801 801 802 802 803 803 803 804 804 804 805 805 805 805 805 806 806 806 806 806 806 806 806 805 805
727 729 731 733 735 737 739 741 743 746 748 751 753 755 757 759 761 762 764 766 768 770 772 774 775 777 779 780 781 783 785 787 789 791 792 792 793 794 795 796 797 798 799 800 801 801 802 802 802 803 803 803 804 804 804 804 805 805 805 805 805 805 805 805 805 805 805 804 804
727 729 731 733 734 736 738 740 742 745 748 750 753 755 756 758 760 761 763 765 767 769 771 773 774 776 777 779 781 783 786 787 789 790 791 791 792 793 794 796 797 798 799 800 800 801 801 802 802 803 803 803 803 804 804 804 804 804 804 804 804 804 804 804 804 804 804 803 803
728 730 731 733 735 735 737 739 741 744 747 750 752 754 756 757 759 761 762 764 766 768 770 772 774 775 776 779 781 783 786 787 788 789 790 791 792 793 794 796 797 798 799 800 800 801 801 802 802 802 803 803 803 803 804 804 804 804 804 804 804 804 804 803 803 803 803 802 802
728 730 732 734 735 736 737 739 741 744 747 750 752 754 756 757 759 761 763 765 766 768 769 771 774 776 777 779 781 783 785 786 787 788 789 790 791 793 795 796 797 798 799 800 800 801 801 801 802 802 802 803 803 803 803 803 803 803 803 803 803 803 803 802 802 802 802 801 801
729 731 733 734 735 736 737 739 742 745 748 751 753 755 757 758 760 762 764 766 767 768 770 772 774 776 778 780 781 783 785 786 787 787 789 790 791 793 795 796 797 798 799 799 800 800 801 801 801 802 802 802 802 802 802 802 802 802 802 802 802 802 802 801 801 801 801 801 800
730 731 733 734 735 737 738 740 743 746 750 753 755 757 758 760 762 764 766 767 768 770 772 774 776 778 779 780 781 783 785 786 786 787 788 790 791 793 794 796 796 798 799 799 800 800 801 801 801 801 801 802 802 801 801 801 801 801 801 801 801 801 801 801 800 800 800 800 799
731 732 734 735 736 738 740 742 745 748 751 754 756 758 760 762 764 766 768 769 770 772 774 776 778 779 780 781 782 783 784 785 786 787 788 790 791 793 794 795 796 797 798 799 799 800 800 801 801 801 801 801 801 801 801 801 801 800 800 800 800 800 800 799 799 799 799 799 798
731 733 734 736 737 739 741 744 746 750 752 755 757 759 761 763 765 767 769 770 771 773 775 777 779 780 781 781 782 783 784 785 786 787 788 790 791 793 794 796 796 797 798 799 799 800 800 801 801 801 801 800 800 800 800 800 799 799 799 799 799 798 798 798 798 798 798 797 797
732 733 735 736 738 740 742 745 747 750 753 755 756 758 760 762 765 766 768 770 772 774 776 778 779 781 781 783 783 784 784 785 786 787 789 790 791 793 794 796 797 798 798 799 799 800 800 800 800 800 800 800 799 799 799 799 799 798 798 798 797 797 797 797 797 796 796 796 796
732 734 735 737 739 741 743 745 748 750 752 754 755 757 759 761 764 766 767 770 771 774 776 777 779 781 782 783 784 784 785 785 786 787 789 790 792 793 794 796 797 797 798 799 799 800 800 800 800 799 799 799 799 799 798 798 798 797 797 797 796 796 796 796 795 795 795 795 795
733 734 736 737 739 741 744 746 748 750 752 754 755 757 759 761 763 765 767 769 771 773 775 777 780 781 782 783 784 785 785 786 787 788 789 791 792 793 795 796 796 797 798 799 799 799 799 799 799 799 798 798 798 798 797 797 797 797 796 796 796 795 795 794 794 794 794 794 794
733 735 736 738 740 742 745 747 749 751 753 754 755 757 759 761 762 765 766 769 771 773 776 778 780 782 783 783 784 785 786 787 788 789 790 791 792 793 795 796 796 797 798 798 799 799 799 799 798 798 798 797 797 797 796 796 796 796 795 795 795 794 794 793 793 793 793 793 793
734 735 737 739 741 744 746 749 751 753 755 755 756 757 759 761 762 764 766 769 771 774 776 779 781 782 782 783 784 785 786 787 788 790 791 792 793 794 795 796 796 797 798 798 798 798 798 798 798 797 797 796 796 796 796 795 795 795 794 794 794 793 793 793 792 792 792 792 792
734 735 738 740 742 745 748 750 753 755 756 758 758 759 760 761 763 765 767 770 772 775 777 779 780 781 782 783 784 786 787 788 789 790 791 792 793 794 795 796 797 797 798 798 798 798 797 797 797 797 796 796 796 795 795 794 794 794 793 793 793 792 792 792 792 792 791 791 791
735 736 738 740 743 746 749 751 754 756 758 759 760 761 762 763 765 766 769 771 773 775 776 778 779 781 782 783 784 786 787 788 790 791 792 793 794 795 796 796 797 797 797 797 797 797 797 796 796 796 796 795 795 794 794 794 793 793 792 792 792 792 791 791 791 791 791 791 790
735 737 739 741 744 747 750 752 755 757 759 761 762 763 764 766 767 769 771 772 774 775 776 778 779 780 782 783 785 786 787 789 790 791 792 793 794 795 796 796 796 797 797 797 796 796 796 796 796 795 795 795 794 793 793 793 792 792 792 791 791 791 791 791 791 790 790 790 789
736 738 740 742 745 747 750 752 755 757 759 761 763 764 766 768 770 771 772 773 774 775 777 778 779 781 782 783 785 786 788 789 791 792 793 794 794 795 796 796 796 796 796 796 796 796 795 795 795 795 794 794 793 793 792 792 792 791 791 791 791 791 791 790 790 790 789 789 789
738 740 742 744 746 748 750 752 754 756 759 761 763 765 767 769 771 773 774 774 775 776 777 778 779 781 782 784 785 787 789 790 791 792 793 794 795 795 796 796 796 796 796 796 795 795 795 794 794 794 793 793 792 792 792 791 791 791 791 791 790 790 790 790 789 789 789 788 788
740 741 743 745 747 749 751 753 755 756 759 761 763 766 768 771 772 773 774 775 776 777 778 779 780 781 782 784 786 787 789 791 791 792 793 794 794 795 795 795 795 795 795 795 795 794 794 794 793 793 793 792 792 791 791 791 791 790 790 790 790 790 790 789 789 788 788 788 787
742 743 745 747 749 750 752 754 755 757 759 762 765 767 770 772 773 773 774 776 776 777 778 780 781 782 784 786 787 788 789 791 791 792 793 794 794 794 795 795 795 795 794 794 794 794 793 793 793 792 792 791 791 791 791 790 790 790 790 789 789 789 789 788 788 788 788 787 787
744 745 747 748 750 751 753 755 756 759 761 763 766 769 771 772 773 774 775 776 776 778 779 780 782 783 785 786 788 789 790 791 792 792 793 793 794 794 794 794 794 794 794 793 793 793 793 792 792 792 791 791 791 790 790 790 789 789 789 789 789 788 788 788 788 787 787 787 787
747 748 749 750 751 753 754 756 758 760 763 765 768 770 771 772 773 774 775 776 777 778 780 781 782 784 785 786 788 789 790 791 791 792 793 793 793 793 793 793 793 793 793 793 792 792 792 792 792 792 791 791 790 790 790 789 789 789 788 788 788 788 788 787 787 787 787 786 786
749 750 751 752 753 755 756 758 760 762 765 767 769 770 771 772 773 775 776 776 777 779 780 782 783 785 786 787 788 789 790 791 791 792 792 792 793 793 793 793 792 792 792 792 792 792 792 792 792 791 791 790 790 789 789 789 788 788 788 788 787 787 787 787 787 786 786 786 786
750 752 753 754 755 757 758 760 762 764 766 768 769 770 771 772 774 775 776 778 779 780 781 782 784 785 786 787 788 789 790 791 791 792 792 792 792 792 792 792 792 792 792 792 792 791 791 791 791 791 791 790 789 789 789 788 788 788 787 787 787 787 787 787 786 786 786 786 785
751 752 754 755 757 758 760 762 764 766 767 768 769 770 771 772 774 776 777 779 780 781 782 783 784 786 787 788 789 789 790 791 791 791 791 792 792 792 792 792 791 791 791 791 791 791 791 791 791 791 790 789 789 788 788 788 787 787 787 787 787 786 786 786 786 786 785 785 785
752 754 755 757 759 761 762 764 766 767 768 769 769 771 772 773 775 776 778 780 781 781 782 784 785 786 787 788 789 789 790 790 791 791 791 791 791 791 791 791 791 791 791 791 791 791 791 791 791 790 790 789 788 788 788 787 787 787 787 787 786 786 786 786 786 785 785 784 784
Wind_Speed
36 35 35 35 34 33 31 29 30 30 31 30 30 29 29 29 29 28 27 28 30 30 30 31 32 32 33 33 32 31 31 30 29 28 27 26 25 24 22 21 20 20 19 17 16 15 15 14 14 13 12 11 11 10 8 7 7 8 8 8 8 7 6 5 5 4 4 4 3
35 35 34 34 33 32 30 28 29 30 30 29 29 30 30 30 29 28 28 29 30 31 31 31 31 32 33 33 32 32 31 30 30 29 28 27 25 24 23 22 21 19 18 16 15 15 15 15 15 14 13 13 12 11 9 7 7 7 8 7 7 6 5 5 4 5 5 5 5
34 34 33 33 32 31 30 28 29 30 30 29 29 30 30 29 28 28 28 29 31 32 32 31 31 32 33 33 33 32 31 31 30 29 28 27 25 24 23 22 21 18 16 16 16 16 16 15 15 15 14 14 13 11 9 8 7 7 7 7 6 6 5 4 4 5 5 6 6
35 34 33 33 33 33 32 31 31 32 31 29 29 29 29 28 27 27 28 30 31 32 32 31 31 32 33 33 33 32 31 31 30 29 28 27 25 24 23 22 20 18 17 17 16 16 15 15 15 15 14 14 13 11 9 7 7 7 7 7 7 6 5 4 4 5 5 5 6
35 34 34 34 34 34 33 32 33 33 31 30 29 29 28 27 27 28 29 30 31 32 31 31 30 31 32 33 33 32 31 30 29 28 27 26 25 24 22 21 19 18 18 18 17 16 15 14 14 14 14 13 11 10 8 7 6 6 7 7 7 6 5 5 5 5 5 5 5
35 34 33 33 34 33 32 32 33 33 32 30 30 29 28 27 28 30 31 32 33 32 31 29 29 30 32 33 33 32 31 30 29 28 27 26 24 23 22 21 20 19 19 18 17 16 15 14 14 13 13 12 11 9 8 7 5 5 6 7 7 6 5 5 4 5 5 5 5
35 34 33 33 33 32 31 32 33 32 31 30 31 31 30 30 31 32 33 34 34 32 30 28 29 31 32 33 33 32 32 30 29 28 26 25 24 23 22 21 20 20 19 17 16 15 14 13 13 13 13 12 11 10 9 7 6 5 6 6 6 5 4 4 4 5 5 5 5
34 33 33 33 33 32 32 33 33 32 30 30 30 31 31 32 33 35 36 35 34 32 30 28 30 32 33 34 33 33 32 30 29 28 27 26 25 23 22 21 21 20 19 17 16 15 14 13 13 14 14 13 12 11 9 8 6 5 6 6 6 5 5 5 5 6 6 6 6
32 31 32 32 32 32 33 33 33 31 30 30 30 31 32 33 35 36 36 35 33 31 29 30 32 33 33 33 33 33 32 30 29 29 28 26 25 24 23 22 22 21 19 17 16 15 14 13 13 13 13 13 12 11 9 8 6 5 6 7 7 6 6 6 7 7 6 6 6
31 31 31 31 31 31 32 32 31 31 30 29 30 31 32 34 35 36 36 35 32 30 29 31 32 33 33 32 32 32 31 30 30 29 28 26 25 24 24 24 22 21 19 17 16 15 14 13 13 12 12 11 10 10 8 7 5 5 5 6 7 7 7 7 7 7 7 6 6
32 32 32 31 31 31 31 30 29 29 29 29 30 31 32 33 34 34 34 33 30 29 29 31 33 33 32 31 31 30 30 30 30 29 27 25 24 24 24 24 22 21 19 17 16 15 14 13 12 12 11 10 9 8 7 6 5 4 5 5 6 6 7 7 6 6 6 6 6
32 32 32 32 32 32 31 29 28 27 27 29 30 30 31 32 32 33 32 30 29 28 28 30 32 32 31 31 30 30 30 29 29 27 26 25 25 25 24 23 21 19 18 17 15 14 13 12 12 11 10 9 8 8 7 6 5 4 4 4 5 5 6 6 6 6 6 6 7
32 32 31 31 32 32 30 28 27 26 27 28 29 30 30 30 31 31 30 29 27 27 27 29 30 31 30 30 29 29 29 29 28 27 26 26 26 25 23 21 20 18 17 16 15 14 13 12 11 11 10 9 8 7 6 6 5 4 4 4 5 5 6 6 6 6 7 7 8
32 32 31 31 32 31 29 27 26 26 27 28 29 29 29 29 29 30 29 28 27 27 27 28 28 29 29 29 29 30 29 28 27 26 27 27 26 24 22 20 19 18 16 15 14 13 13 12 11 10 9 9 8 7 6 6 5 5 5 5 6 6 6 7 7 7 8 8 9
32 32 32 31 31 29 28 27 26 26 27 28 28 28 28 28 28 29 29 28 27 27 28 28 28 28 29 29 30 30 29 27 27 27 27 26 24 22 21 19 18 17 16 15 14 13 13 12 11 10 9 9 8 8 7 7 7 7 6 6 7 7 7 7 8 8 9 9 10
31 31 31 31 30 28 27 26 25 26 27 27 28 28 28 27 28 29 29 28 27 27 28 28 28 28 29 30 30 29 28 28 28 28 27 25 23 21 20 19 17 16 15 14 14 14 13 12 12 11 10 9 9 9 9 9 8 8 8 7 7 7 7 8 8 9 9 10 10
30 30 30 30 29 28 27 26 26 27 27 28 28 28 28 28 29 29 29 27 27 27 28 28 29 29 29 29 29 29 29 30 29 28 26 24 22 21 19 18 16 15 14 14 14 13 13 12 11 10 10 9 9 9 9 9 8 8 8 7 7 7 8 8 8 9 9 10 10
29 29 29 28 28 27 27 27 27 28 28 28 29 28 29 29 30 29 28 28 28 28 28 29 29 30 30 30 30 30 31 30 29 27 25 23 21 20 18 17 15 14 13 13 13 12 12 11 10 9 9 8 8 8 7 7 6 6 6 7 7 8 8 9 9 9 10 10 11
29 28 28 27 27 27 28 29 29 29 29 29 29 29 29 29 29 29 28 28 29 29 30 30 30 31 31 31 31 31 30 29 28 26 24 22 21 19 18 16 14 13 12 12 12 11 10 9 9 8 7 7 6 5 5 5 5 5 5 6 7 8 8 9 10 10 11 11 11
28 27 27 26 27 28 28 29 29 29 29 29 28 28 28 28 28 29 29 29 30 31 31 32 32 32 32 32 31 30 29 28 26 25 23 22 20 19 17 16 14 13 13 12 11 11 10 9 8 8 7 6 6 5 5 5 5 5 6 7 7 8 8 8 9 10 10 11 11
26 25 25 26 27 28 29 29 29 29 29 28 28 28 27 27 28 28 29 30 32 33 33 33 33 32 32 31 30 29 28 26 25 24 23 21 20 18 17 15 15 14 13 13 12 11 10 10 9 9 8 8 7 7 6 6 6 7 7 7 7 7 8 8 8 8 9 9 10
25 25 26 27 28 29 30 29 29 29 28 28 27 27 27 27 27 28 30 32 33 33 33 32 32 32 31 30 29 29 27 26 25 23 22 20 19 17 16 15 15 14 14 13 12 11 11 10 10 10 9 8 8 7 7 7 7 7 7 8 8 8 8 8 8 8 8 9 9
25 26 27 28 30 30 30 29 29 29 28 27 27 26 26 27 28 30 31 32 33 33 32 32 31 30 30 29 29 28 27 26 24 22 21 19 18 17 16 15 14 14 13 12 12 11 10 10 10 9 9 8 8 7 7 7 8 8 8 9 9 10 10 10 10 9 9 9 9
26 27 28 30 31 30 30 29 29 28 28 27 27 27 27 29 30 32 32 32 32 32 31 30 30 29 29 28 28 27 26 25 24 22 20 19 17 16 15 15 14 13 12 11 10 9 9 8 8 8 8 7 7 7 7 8 8 8 9 10 10 11 11 11 11 10 10 9 9
28 29 30 31 30 30 29 29 28 28 27 27 28 28 30 32 32 33 32 32 32 31 31 30 29 29 28 28 27 26 25 24 23 21 20 18 17 16 15 14 13 12 10 9 8 8 7 7 7 7 6 6 6 6 7 7 7 8 8 9 10 11 11 11 11 10 9 9 9
30 30 31 30 30 29 28 28 28 28 28 28 29 30 32 33 33 33 32 32 31 31 30 30 29 28 28 27 26 25 23 22 21 20 19 18 17 16 15 13 12 10 9 8 7 7 6 6 5 5 5 5 5 5 5 6 6 7 8 8 9 10 11 11 10 9 8 7 8
30 30 30 29 29 28 28 27 27 27 28 28 30 31 33 33 33 32 32 31 31 30 30 29 28 28 27 26 25 24 22 21 19 18 18 17 16 15 14 12 11 9 8 7 6 5 5 4 4 3 3 4 4 4 5 5 6 7 8 8 9 9 9 9 9 9 8 7 8
30 30 29 29 28 27 27 27 27 27 28 29 30 31 32 32 33 32 32 31 31 30 29 28 28 27 26 25 24 22 21 20 18 17 17 16 15 14 13 11 10 8 7 6 5 4 3 2 2 2 2 4 4 5 6 7 7 8 8 9 9 9 9 8 8 8 8 8 9
30 29 29 28 28 28 27 27 27 27 27 28 29 30 31 32 32 32 32 31 31 30 29 28 27 26 25 24 23 21 20 19 18 17 16 15 14 13 11 10 9 7 6 4 3 2 1 0 0 1 2 4 5 6 7 8 8 9 9 9 9 8 8 8 8 8 9 9 10
29 29 29 29 29 28 27 27 27 27 27 27 28 30 31 31 31 31 31 31 30 29 29 28 27 26 25 24 22 21 20 18 17 15 14 13 12 11 10 9 8 6 5 4 2 1 1 2 2 2 2 4 5 7 8 8 9 9 9 9 8 7 7 7 8 9 9 10 11
29 29 29 29 29 28 28 27 27 27 27 27 28 29 30 30 30 30 30 30 29 29 28 28 27 26 25 23 22 21 19 17 16 14 12 11 10 9 8 8 7 6 4 3 1 1 2 3 4 3 3 4 6 7 8 9 9 9 9 8 7 7 7 8 9 9 10 11 11
29 29 29 29 29 28 28 28 28 28 28 29 29 29 29 28 28 29 29 29 29 29 28 27 27 26 24 22 21 19 18 16 15 13 12 10 10 9 8 7 6 5 4 3 1 1 3 4 5 5 5 5 6 8 9 9 9 8 7 7 6 6 7 8 9 10 10 10 10
28 28 28 28 28 28 29 29 29 29 30 29 29 29 28 28 28 28 28 28 28 28 28 27 26 25 23 22 20 18 17 15 14 13 11 10 9 8 7 6 5 5 4 3 2 2 3 4 6 6 6 6 7 8 8 8 8 7 6 6 6 6 7 8 9 10 9 9 8
28 28 28 28 28 28 29 29 30 30 30 30 29 29 29 28 28 28 28 28 28 27 26 25 24 23 21 20 18 17 16 15 14 13 12 10 9 8 7 6 5 4 4 3 3 3 4 5 6 6 6 7 8 9 9 8 7 6 5 5 5 6 7 8 8 8 8 7 7
27 27 27 27 28 28 28 29 30 30 30 30 29 29 29 29 28 28 28 28 27 26 25 23 22 20 19 18 17 16 15 15 14 13 12 11 9 8 7 6 5 5 4 3 3 3 4 5 6 6 7 8 9 9 9 8 7 6 5 5 5 6 7 7 7 7 7 7 7
26 26 27 27 27 27 28 29 29 29 29 29 29 28 28 28 28 28 28 27 26 25 24 22 21 19 19 17 16 15 15 14 14 13 12 11 9 8 7 7 6 5 4 3 3 4 5 5 6 6 7 8 9 10 9 8 7 6 5 5 5 6 7 7 7 7 7 7 8
25 26 26 26 26 27 27 28 29 29 29 28 28 28 28 27 27 27 27 26 26 24 23 21 20 19 18 17 16 15 13 13 12 12 11 10 9 8 7 7 6 5 4 3 3 4 4 5 5 5 6 8 9 9 9 8 7 5 5 5 6 6 7 8 8 8 8 9 10
24 25 25 25 26 26 26 27 28 28 28 27 27 27 28 28 27 26 25 24 24 24 23 21 20 19 17 16 15 13 12 11 10 10 10 9 9 8 7 6 6 4 3 2 2 3 3 4 5 5 6 7 8 9 9 8 7 5 5 5 6 7 8 8 9 9 10 11 12
24 24 25 25 25 26 26 27 27 27 27 27 27 27 27 27 26 25 23 22 22 22 22 20 19 17 15 14 13 11 10 9 8 8 8 7 7 6 6 6 5 5 3 2 1 1 3 4 4 5 5 7 7 8 8 8 6 6 6 6 7 8 8 9 10 11 12 13 13
26 26 26 26 27 27 27 27 27 28 28 28 28 27 27 26 25 24 22 21 21 20 19 18 17 15 13 12 11 11 10 9 8 6 6 5 4 4 4 4 5 5 4 3 1 1 2 4 5 5 5 6 7 8 8 7 6 6 6 7 8 9 10 11 12 13 13 14 14
29 29 28 28 28 29 29 29 28 28 28 28 28 27 26 25 24 23 22 20 19 18 17 16 15 13 12 11 11 10 10 9 7 5 4 3 2 2 2 2 3 4 4 3 2 0 2 4 5 5 5 6 6 7 8 8 7 7 8 8 9 11 12 13 13 14 14 14 14
Wind_Direction
173 173 174 173 172 171 170 170 170 170 170 169 169 169 170 169 170 171 172 171 170 169 169 169 170 170 171 171 171 169 167 166 165 166 166 166 166 166 168 170 173 174 172 166 160 159 162 167 170 173 178 184 188 189 188 188 186 182 180 180 183 186 190 192 190 190 192 199 211
172 173 173 173 172 170 169 167 168 169 170 170 170 170 170 170 170 171 171 171 170 169 168 169 170 170 170 170 170 169 167 165 165 165 165 165 166 167 168 171 173 173 169 163 162 164 166 169 172 176 182 188 191 192 190 186 183 180 179 179 182 187 191 195 196 198 200 205 212
172 172 172 171 170 169 167 166 167 168 169 169 170 170 169 169 170 171 172 172 170 168 168 168 169 170 170 169 169 168 166 165 165 165 165 165 166 167 170 172 172 170 167 165 166 167 168 171 175 181 187 191 194 192 188 181 177 177 178 179 186 193 198 202 204 206 209 215 222
172 172 171 171 171 171 170 168 168 168 168 168 168 168 168 168 168 169 170 170 169 168 168 168 168 169 169 168 167 166 165 165 165 165 164 165 167 168 170 171 170 169 168 169 168 167 168 172 178 185 191 194 194 192 187 179 175 177 181 186 193 201 206 210 212 214 217 223 232
172 173 173 173 173 173 171 169 167 167 167 166 166 165 165 166 167 167 167 168 169 169 169 168 167 167 167 167 166 165 164 164 164 165 165 166 168 169 170 169 169 169 171 171 169 167 168 172 178 184 189 191 192 191 189 185 183 184 187 192 198 204 209 213 215 218 224 232 242
172 173 173 173 173 172 170 168 167 166 165 165 164 164 164 166 166 167 167 168 169 169 168 167 165 165 165 165 164 164 164 164 165 165 166 166 168 169 169 169 169 171 173 172 171 169 170 172 175 178 181 184 188 190 192 194 196 197 196 196 199 203 207 211 215 223 232 243 252
172 172 172 172 171 169 167 166 166 165 164 164 164 164 165 167 167 167 167 167 168 167 166 165 164 164 164 164 163 163 164 165 165 166 166 167 168 168 168 168 171 173 174 174 173 172 172 174 174 175 177 182 187 192 196 199 204 204 201 197 197 201 209 218 227 235 245 253 260
170 170 170 170 170 168 166 165 164 163 163 163 164 166 167 167 167 166 166 166 165 165 165 164 164 164 164 164 163 163 164 165 166 166 167 167 168 168 168 169 172 174 175 175 175 175 176 177 178 178 180 184 190 195 198 200 201 201 197 193 193 200 214 227 238 247 254 261 266
166 167 168 168 167 166 165 163 162 162 162 163 165 167 167 167 166 165 165 164 164 164 164 164 164 164 164 163 163 163 164 165 166 167 168 168 167 167 169 172 173 174 175 176 178 178 179 180 181 182 184 188 192 196 198 197 194 191 190 189 190 198 212 227 240 249 258 264 267
163 164 164 163 163 163 162 160 160 161 161 162 164 166 166 166 165 165 164 164 163 163 164 164 164 163 163 163 163 164 165 166 166 167 167 167 168 169 172 175 175 175 175 177 179 181 182 182 182 183 186 190 194 196 196 194 190 184 184 187 192 200 212 225 238 248 257 263 264
163 162 161 161 160 159 158 156 157 159 160 160 162 163 164 164 164 164 163 163 162 162 164 164 163 162 162 163 163 164 165 166 167 167 167 168 170 173 176 176 176 175 175 177 179 181 182 182 182 182 184 188 192 195 196 194 192 186 184 187 196 205 216 227 238 248 256 260 260
160 160 159 159 158 156 155 153 155 157 158 159 160 160 160 161 162 162 162 161 161 161 162 162 162 162 162 163 164 165 167 167 168 167 168 170 173 176 177 176 175 174 175 176 178 181 182 182 182 181 182 185 190 195 198 200 200 198 195 197 205 215 224 233 241 249 254 256 258
158 157 157 156 155 154 152 152 153 155 156 156 157 157 158 160 161 160 160 159 159 159 159 161 161 161 162 163 164 166 167 168 168 169 170 173 176 177 176 174 174 173 173 175 177 180 182 183 183 183 182 183 187 193 199 205 211 214 215 217 222 228 233 239 243 246 250 254 259
156 156 155 154 153 152 151 151 152 153 154 154 155 156 157 158 159 159 159 158 158 158 158 159 160 161 163 163 165 167 168 168 169 170 172 174 175 175 173 171 171 172 173 174 177 180 183 184 185 185 185 184 185 190 198 209 218 224 228 231 233 236 239 241 244 248 252 257 262
155 155 154 153 152 152 151 151 151 152 153 153 155 156 157 158 159 159 158 157 157 157 158 158 159 162 164 165 167 168 168 168 170 172 173 173 173 172 170 169 170 172 173 175 178 181 184 185 186 187 187 186 186 189 198 208 218 226 232 237 240 243 245 247 249 253 257 262 267
155 154 154 153 153 153 152 151 151 151 153 154 155 157 157 158 159 159 158 156 156 157 158 159 160 162 165 167 168 168 168 169 172 173 172 171 170 169 169 169 170 173 175 177 180 182 185 186 188 189 190 190 191 195 201 209 218 225 231 237 243 247 251 253 257 260 264 268 272
154 154 154 154 154 153 151 151 151 152 154 154 156 157 158 159 160 159 158 157 156 157 159 160 161 162 164 166 167 167 168 170 172 172 170 169 168 168 168 169 171 174 176 178 180 181 183 184 186 189 192 194 197 201 206 213 219 225 231 237 243 250 255 259 263 267 270 273 276
152 153 154 155 155 153 151 150 150 152 153 155 156 158 158 159 158 158 158 158 158 158 159 160 161 162 163 164 166 168 169 170 170 169 168 167 167 167 168 170 171 173 175 176 176 176 177 178 179 182 187 191 196 201 206 213 220 227 235 242 249 255 260 264 268 271 275 277 279
152 153 154 155 154 151 150 149 149 150 152 154 155 156 156 156 156 157 158 159 159 159 158 158 159 161 163 164 166 167 168 168 167 166 166 165 166 167 168 169 170 170 171 171 171 170 170 171 173 176 180 185 190 197 205 217 229 240 250 256 260 265 268 272 274 277 279 281 282
151 152 153 153 151 149 148 147 147 148 150 152 153 153 153 153 154 156 157 158 159 158 157 157 158 160 162 163 164 164 164 165 164 163 163 164 165 167 168 169 169 168 168 168 168 168 170 172 176 179 183 187 192 199 209 222 234 245 253 259 263 268 272 276 279 282 284 285 285
150 150 150 149 147 145 144 144 145 146 147 148 149 149 149 150 152 155 156 157 158 158 157 157 158 159 160 160 160 160 161 162 162 161 161 163 165 167 169 170 170 170 170 170 172 173 177 180 184 188 191 194 198 204 212 221 231 239 245 251 256 261 266 271 277 283 288 290 289
148 147 146 145 143 142 141 140 141 143 144 145 146 146 146 148 151 153 154 154 155 155 156 157 158 158 158 158 158 158 158 159 160 160 161 163 165 167 170 172 173 173 173 174 177 180 184 188 191 194 197 199 203 209 216 224 232 239 245 249 254 258 262 266 272 279 286 290 292
144 142 142 141 139 138 138 138 139 140 142 143 143 144 145 147 149 151 151 151 152 152 154 155 155 156 156 157 158 157 157 157 158 159 161 163 165 167 169 172 174 175 175 177 181 185 189 193 197 200 204 207 211 216 224 232 240 247 253 257 261 263 266 268 271 276 281 287 291
140 139 138 138 137 136 136 138 139 140 141 143 143 144 144 147 148 148 148 148 149 149 150 151 151 153 155 157 158 158 157 157 157 158 160 163 165 166 168 170 172 172 174 176 181 187 193 198 202 207 212 218 224 231 238 245 252 259 264 269 271 273 273 273 274 277 282 287 291
138 138 137 137 137 136 137 138 140 141 143 144 144 144 145 146 146 145 145 145 145 146 147 148 150 153 155 157 158 159 158 158 157 158 159 161 163 164 164 164 164 165 168 171 177 184 191 199 206 212 220 227 235 242 250 256 264 270 275 279 280 281 281 280 280 280 284 289 295
138 137 136 137 136 136 137 139 141 143 144 144 144 144 144 144 144 143 143 142 143 145 147 149 151 154 156 157 157 158 158 159 159 159 160 160 160 160 158 157 157 158 162 166 173 181 189 197 206 215 224 233 242 252 260 267 274 279 284 287 288 288 288 288 287 286 287 292 300
137 136 136 136 135 136 137 139 141 143 144 144 143 143 143 143 142 142 141 141 143 145 148 150 152 154 155 156 156 156 157 158 159 160 161 160 158 155 154 153 153 154 157 162 169 177 186 194 208 226 242 254 265 275 283 288 290 293 295 296 296 296 296 296 296 295 295 298 305
136 136 135 134 134 135 137 138 140 143 144 144 143 142 142 141 141 141 141 142 144 146 147 149 151 153 154 154 154 155 156 156 158 159 159 158 155 153 151 150 151 152 154 157 161 167 176 188 210 246 276 287 291 295 298 301 302 303 303 303 304 303 303 303 303 303 303 304 307
136 135 134 133 133 135 136 138 141 143 143 143 141 141 140 140 140 141 141 143 144 146 147 148 150 151 151 151 152 153 153 154 155 156 156 154 153 151 151 151 151 152 152 151 147 142 133 134 234 273 294 303 299 298 300 304 305 306 307 308 309 310 312 312 312 311 310 309 309
135 133 133 133 134 135 137 139 141 141 141 139 138 138 137 138 139 140 141 143 145 147 148 149 149 149 149 149 150 149 149 150 152 152 152 152 151 152 153 155 156 156 156 152 139 107 55 22 2 347 327 316 305 301 302 304 306 308 309 311 313 316 319 320 319 317 315 313 311
134 133 133 133 134 136 138 139 139 138 137 136 135 135 135 136 137 140 142 144 146 147 149 149 148 147 147 147 146 145 145 147 148 150 151 152 154 156 160 163 164 166 169 169 165 36 10 3 358 356 348 330 312 305 305 306 307 308 310 312 317 321 324 324 323 320 317 315 313
133 133 133 134 135 136 136 136 135 135 134 134 134 134 134 136 138 141 143 145 146 146 147 147 146 144 142 142 141 142 143 145 148 151 153 156 159 162 167 171 173 178 185 198 230 309 338 346 351 353 350 335 317 311 310 309 308 308 309 313 319 325 328 328 326 323 321 319 319
132 132 133 134 134 135 134 134 133 133 133 133 133 134 135 137 139 141 143 144 145 145 145 144 142 140 139 138 139 140 143 146 150 153 156 160 163 168 174 179 182 189 200 220 252 294 323 336 345 349 345 332 323 319 317 314 310 307 309 315 324 330 334 333 330 328 327 328 328
131 132 133 133 133 133 132 132 132 132 132 132 133 135 137 139 140 140 141 141 142 142 141 140 138 137 137 138 139 141 144 147 150 154 159 163 166 172 179 187 194 202 213 229 256 289 316 331 342 345 340 329 327 327 326 322 316 313 315 323 333 339 340 338 336 336 338 339 338
132 132 132 132 132 131 130 130 130 130 131 131 133 136 139 140 140 139 139 139 139 138 136 135 135 135 136 138 140 142 144 148 152 156 159 163 167 174 182 190 199 207 217 233 260 291 314 330 342 344 337 330 330 332 332 329 325 324 327 335 344 347 345 342 343 344 346 345 342
133 132 132 131 130 128 128 128 129 129 130 131 134 136 138 138 138 137 137 137 136 134 133 133 134 134 135 137 139 142 145 149 152 155 159 163 168 175 182 187 195 203 216 240 270 298 318 334 347 346 337 329 330 333 334 334 332 333 338 348 352 351 348 345 345 345 343 341 338
132 132 130 129 127 126 126 127 128 128 129 132 134 135 135 134 133 134 136 136 135 133 133 133 134 135 136 137 139 142 145 148 151 155 159 165 171 176 181 185 190 198 215 247 281 308 329 345 357 353 339 330 330 333 335 337 338 342 350 356 355 350 345 342 340 338 335 334 332
131 130 128 126 125 125 125 126 127 128 129 130 131 132 131 131 131 133 135 136 134 133 133 134 135 135 136 137 138 140 144 148 153 157 161 166 173 179 184 188 193 201 213 244 290 324 346 357 4 358 343 332 333 335 338 341 344 350 355 354 351 346 342 338 335 332 329 328 328
128 126 124 123 122 121 122 123 124 126 127 128 128 129 130 130 131 133 135 135 134 133 133 133 133 134 136 138 140 144 148 153 156 158 159 163 169 179 188 193 196 198 201 208 274 354 5 5 7 360 346 335 337 340 342 345 349 352 354 350 346 342 339 335 333 330 329 327 328
120 119 118 118 118 119 119 121 123 126 128 128 128 129 130 131 132 133 133 132 131 131 131 131 132 135 138 143 146 150 153 156 157 156 155 155 159 168 182 190 192 192 186 173 159 46 13 8 7 3 352 342 342 344 346 350 352 353 353 349 345 341 339 335 333 332 331 331 333
117 118 118 119 120 123 124 125 127 129 131 131 131 131 131 131 132 132 131 131 131 131 132 132 134 138 142 146 149 152 154 157 157 156 153 149 146 149 161 177 186 188 187 184 187 316 359 2 6 8 2 351 347 348 351 355 356 355 352 349 345 342 339 336 334 334 334 334 336